Miscellaneous Local Product
Issued by NWS North Platte, NE

Home | Current Version | Previous Version | Text Only | Print | Product List | Glossary On
Versions: 1 2 3 4 5 6 7 8 9 10 11 12 13 14 15 16 17 18 19 20 21 22 23 24 25 26 27 28 29 30 31 32 33 34 35 36 37 38 39 40 41 42 43 44 45 46 47 48 49 50
000
AXUS43 KLBF 170210
MISLBF


WESTERN AND NORTH CENTRAL NEBRASKA HOURLY WEATHER ROUNDUP
NATIONAL WEATHER SERVICE NORTH PLATTE NE
900 PM CDT THU APR 16 2015

***STATIONS NOT REPORTING VARIABLES SUCH AS SKY/WEATHER OR
PRESSURE ARE PROVIDED BY THE NEBRASKA DEPARTMENT OF
ROADS...RAWS...AND APRS NETWORKS...AND ARE NOT UNDER
NATIONAL WEATHER SERVICE QUALITY CONTROL***

...OBSERVATIONS IN AND NEAR THE EASTERN PANHANDLE OF NEBRASKA...

CITY           SKY/WX    TMP DP  RH WIND       PRES   REMARKS
PINE RIDGE     MOCLDY    51  36  56 N8        30.15R
CHADRON        CLOUDY    51  37  58 N9        30.16R
ALLIANCE       CLOUDY    51  39  63 N14       30.12R
SIDNEY         CLOUDY    47  43  86 NE9       30.12R
WHITECLAY        N/A     49  36  58 NE5         N/A
CRESCENT LAKE    N/A     51  40  67 NE12        N/A
BIG SPRINGS      N/A     54  47  78 NE6         N/A
$$

...OBSERVATIONS IN NORTH CENTRAL NEBRASKA...

CITY           SKY/WX    TMP DP  RH WIND       PRES   REMARKS
VALENTINE      CLOUDY    61  43  51 N5        30.10R
THEDFORD       CLOUDY    55  51  87 E5        30.10S
AINSWORTH      DRIZZLE   57  51  80 CALM      30.10S
O`NEILL        CLOUDY    57  51  81 E5        30.09S
ORD            CLOUDY    57  50  77 N10       30.06S
BROKEN BOW     CLOUDY    57  52  83 N9        30.07R
BROWNLEE         N/A     58  51  77 N5          N/A
SPRINGVIEW       N/A     59  50  71 CALM        N/A
BREWSTER         N/A     61  52  72 E5          N/A
ROSE             N/A     56  54  94 NE3         N/A
NEWPORT          N/A     58  50  75 CALM        N/A
SARGENT          N/A     56  52  86 NE3         N/A
COMSTOCK         N/A     60  58  92 NE5         N/A
EWING            N/A     57  52  83 CALM        N/A
$$

...OBSERVATIONS IN SOUTHWEST NEBRASKA AND FAR NORTHEAST COLORADO...

CITY           SKY/WX    TMP DP  RH WIND       PRES   REMARKS
WRAY           MOCLDY    51  51 100 NE14G21   30.03F
HOLYOKE        CLOUDY    54  50  87 NE9       30.06F
IMPERIAL       CLOUDY    52  50  93 NE8       30.05S
OGALLALA       CLOUDY    54  49  83 NE9       30.07R
NORTH PLATTE   CLOUDY    56  51  84 E5        30.07R
MCCOOK         CLOUDY    55  53  93 NE9       30.01F FOG
LEXINGTON      CLOUDY    57  52  85 E9G17     30.05R
PAXTON           N/A     56  49  79 NE12        N/A
SUTHERLAND       N/A     52  49  90 E6          N/A
BRADY            N/A     55  51  85 CALM        N/A
GOTHENBURG       N/A     57  51  82 NE3         N/A
CALLAWAY         N/A     58  55  89 E6          N/A
$$

...NORTH PLATTE AREA...

CITY           SKY/WX    TMP DP  RH WIND       PRES   REMARKS
AIRPORT        CLOUDY    56  51  84 E5        30.07R
DOWNTOWN         N/A     57  52  83 NE3         N/A
$$

...SOME WEATHER OBSERVATIONS FROM AROUND THE REGION...

CITY           SKY/WX    TMP DP  RH WIND       PRES   REMARKS
DENVER         SNOW      33  32  96 W14       30.12S VSB 1/4 WCI  23
LARAMIE        CLOUDY    30  28  92 N7        30.16S WCI  23
CHEYENNE       LGT SNOW  33  31  92 N10G22    30.15R FOG     WCI  25
SCOTTSBLUFF    LGT RAIN  46  45  96 W7        30.14S
RAPID CITY     MOCLDY    47  33  58 NW9       30.17S
PIERRE         PTCLDY    59  35  40 N14       30.09R
WINNER         FAIR      62  42  47 NW7       30.09R
SIOUX FALLS    MOCLDY    64  49  57 SW7       30.08R
OMAHA          CLOUDY    63  51  65 N5        30.05R
GRAND ISLAND   LGT RAIN  59  53  80 E7        30.07R
KANSAS CITY    MOCLDY    67  56  67 E7        30.03R
WICHITA        CLOUDY    67  55  65 NE12      29.98R
HAYS           CLOUDY    57  48  72 SE10G16   30.00R
LIBERAL        CLOUDY    61  48  63 NE5       29.91R
GOODLAND       LGT RAIN  52  51  97 NE15      30.00S
$$



USA.gov is the U.S. government's official web portal to all federal, state and local government web resources and services.